Regional Weather Roundup
Issued by NWS

Home | Current Version | Previous Version | Graphics & Text | Print | Product List | Glossary On
Versions: 1 2 3 4 5 6 7 8 9 10 11 12 13 14 15 16 17 18 19 20 21 22 23 24 25 26 27 28 29 30 31 32 33 34 35 36 37 38 39 40 41 42 43 44 45 46 47 48 49
000
ASUS45 KCYS 281410
RWRWY

WYOMING REGIONAL WEATHER ROUNDUP
NATIONAL WEATHER SERVICE CHEYENNE WY
800 AM MDT FRI AUG 28 2015

NOTE:  "FAIR" INDICATES FEW OR NO CLOUDS BELOW 12,000 FEET
WITH NO SIGNIFICANT WEATHER AND/OR OBSTRUCTIONS TO VISIBILITY.

WYZ001-281500-
YELLOWSTONE NATIONAL PARK

CITY           SKY/WX    TMP DP  RH WIND       PRES   REMARKS
LK YELLOWSTONE   N/A     38  37  97 CALM      30.45R
W YELLOWSTONE  NOT AVBL

$$
WYZ002>013-054>058-071-098>099-281500-
NORTHERN WYOMING

CITY           SKY/WX    TMP DP  RH WIND       PRES   REMARKS
JACKSON        FAIR      45  43  93 CALM      30.38R
CODY           FAIR      55  46  71 CALM      30.22R
GREYBULL       FAIR      53  47  79 SE3       30.18R HAZE
WORLAND        FAIR      55  53  93 S3        30.19R FOG
SHERIDAN       FAIR      62  49  62 CALM      30.12R
BUFFALO        FAIR      68  39  34 W8        30.18R
GILLETTE       FAIR      65  46  50 W6        30.13R
HULETT         FAIR      61  50  67 S5        30.12S
NEWCASTLE      FAIR      59  46  63 CALM      30.13R

$$
WYZ014>020-022>026-101>103-281500-
CENTRAL WYOMING

CITY           SKY/WX    TMP DP  RH WIND       PRES   REMARKS
BIG PINEY      FAIR      44  37  76 CALM      30.40R
PINEDALE       FAIR      41  39  93 NW7       30.41R
DUBOIS         FAIR      45  37  76 NW7       30.37R
LANDER         FAIR      50  45  83 CALM      30.26R
RIVERTON       FAIR      54  50  86 NW5       30.27R
CASPER         FAIR      61  46  57 SW13      30.24R
DOUGLAS        FAIR      61  47  59 NW13      30.21R

$$
WYZ021-027>030-104>119-281500-
SOUTHERN WYOMING

CITY           SKY/WX    TMP DP  RH WIND       PRES   REMARKS
EVANSTON       FAIR      54  38  54 S7        30.39R
KEMMERER       FAIR      46  37  71 N9        30.41R
FORT BRIDGER   SUNNY     57  37  47 NW5       30.42R
ROCK SPRINGS   FAIR      51  43  74 CALM      30.38R
DIXON          FAIR      50  45  81 E5        30.41R
RAWLINS        FAIR      50  45  83 E5        30.37R HAZE
SARATOGA       FAIR      50  46  87 CALM      30.40R
LARAMIE        FAIR      51  48  89 CALM      30.36R
CHEYENNE       CLOUDY    62  49  62 NW12      30.26R
TORRINGTON     FAIR      64  50  60 NW9       30.12R
PINE BLUFFS    FAIR      63  50  63 W8        30.20R

$$



USA.gov is the U.S. government's official web portal to all federal, state and local government web resources and services.